[[{"header":{"parameterUnit":"m.s-1","parameterCategory":1,"la1":30.2991,"la2":30.254,"lo1":-89.0895,"lo2":-89.0444,"dy":0.0017,"dx":0.0017,"nx":28,"ny":28,"refTime":"2024-12-19T09:00:00:Z","depth":0,"parameterNumber":2,"parameterNumberName":"U-component_of_WINDS"},"data":[0,0,0,0,0,0,0,0,0,0,0,0,0,0,0,0,0,0,0,0,0,0,0,0,0,0,0,0,0,0,0,0,0,0,0,0,0,0,0,0,0,0,0,0,0,0,0,0,0,0,0,0,0,0,0,0,0,0,2.5718,2.5719,0,2.5787,2.5788,2.5789,2.5758,2.5757,2.5755,2.5753,2.5825,2.5828,2.5832,0,0,0,0,0,0,0,0,0,0,0,0,0,2.5563,2.5566,2.5718,2.5719,2.572,2.5787,2.5788,2.5789,2.5759,2.5757,2.5755,2.5753,2.5824,2.5828,2.5832,0,0,0,0,0,0,0,0,0,0,0,0,0,2.5631,2.5567,2.5718,2.5713,2.5713,2.5787,2.5788,2.5789,2.5759,2.5757,2.5754,2.5752,2.5822,2.5827,2.5832,2.5916,0,0,2.5848,2.5851,0,0,0,0,0,0,0,0,2.5627,2.5637,2.5713,2.5713,2.5714,2.5762,2.5759,2.5832,2.576,2.5742,2.5753,2.575,2.5806,2.5812,2.5831,2.5919,2.5922,2.5849,2.5852,2.5854,2.5856,0,0,0,0,0,0,0,2.5622,2.5634,2.5746,2.5714,2.5715,2.5708,2.5715,2.5773,2.5787,2.5743,2.5741,2.575,2.5806,2.5826,2.5832,2.5923,2.5849,2.5853,2.5857,2.5859,2.6086,2.6088,0,0,0,0,0,0,2.5618,2.563,2.5743,2.5748,2.5663,2.5713,2.5721,2.5749,2.5786,2.579,2.5752,2.5748,2.5818,2.5826,2.5835,2.5936,2.5854,2.5859,2.5862,2.6083,2.6086,2.6089,0,0,0,0,0,0,2.5614,2.5628,2.5741,2.5688,2.5702,2.5718,2.575,2.5752,2.5772,2.5793,2.5796,2.577,2.5816,2.5827,2.5896,2.5938,2.5862,2.5866,2.6079,2.6084,2.6088,2.6138,0,0,0,0,0,0,2.561,2.5627,2.5658,2.5689,2.5705,2.58,2.5753,2.5755,2.5781,2.5776,2.581,2.5814,2.5815,2.5889,2.5901,2.5944,2.587,2.6076,2.6081,2.6087,2.6133,2.6144,2.6153,0,0,0,0,0,2.5605,2.5669,2.566,2.5674,2.5744,2.5803,2.5812,2.5812,2.5784,2.5816,2.583,2.5813,2.5931,2.5896,2.591,2.5955,2.6073,2.608,2.6086,2.6129,2.6142,2.6153,0,0,0,0,0,0,2.5642,2.5673,2.5663,2.5739,2.5769,2.5798,2.5837,2.5826,2.5864,2.5858,2.5858,2.5866,2.5937,2.5953,2.5913,2.6038,2.5998,2.6008,2.6025,2.6038,2.6048,2.6043,2.5875,0,0,0,0,0,2.5659,2.5704,2.5729,2.5794,2.5809,2.5821,2.5847,2.5845,2.5875,2.5887,2.5906,2.5937,2.5982,2.6011,2.6053,2.6135,2.6143,2.6173,2.6183,2.6191,2.62,2.6247,2.6261,2.6111,2.6111,2.6111,0,0,2.5695,2.5718,2.5746,2.5802,2.5825,2.5872,2.5832,2.5883,2.5918,2.5895,2.5962,2.5977,2.6012,2.6088,2.6123,2.6103,2.6243,2.62,2.6206,2.621,2.6255,2.6269,2.6282,2.6115,2.6114,2.6114,0,0,2.5785,2.5806,2.5863,2.5887,2.5922,2.593,2.5944,2.5975,2.5984,2.6051,2.6036,2.6078,2.6154,2.618,2.6203,2.6305,2.6291,2.6319,2.6372,2.6417,2.6429,2.644,2.6477,2.6491,2.6328,2.6328,2.6328,0,2.5825,2.5895,2.5894,2.5947,2.5973,2.5955,2.6014,2.6038,2.6085,2.6103,2.6081,2.6178,2.6199,2.6283,2.6308,2.6327,2.6344,2.6315,2.6428,2.6438,2.6448,2.6484,2.6498,2.6331,2.6331,2.633,2.633,0,2.5943,2.5992,2.6035,2.6081,2.6112,2.6167,2.6176,2.6208,2.6204,2.6215,2.6284,2.631,2.6358,2.6378,2.6374,2.6462,2.6448,2.6427,2.6386,2.6465,2.6499,2.6513,2.6335,2.6334,2.6333,2.6333,0,0,2.6057,2.6104,2.6119,2.6141,2.6179,2.6218,2.6274,2.632,2.6348,2.6382,2.643,2.6496,2.6477,2.6503,2.6502,2.6542,2.6624,2.6516,2.6517,2.6536,2.6724,2.674,2.6756,2.6615,2.6618,2.662,2.6721,0,2.615,2.6247,2.6249,2.6339,2.6385,2.637,2.6419,2.6449,2.6461,2.6503,2.6516,2.6564,2.6534,2.6551,2.659,2.6606,2.6662,2.6598,2.666,2.6662,2.6652,2.6773,2.679,2.6884,2.6734,2.6736,2.6738,0,2.6271,2.6309,2.6404,2.6437,2.6457,2.6501,2.6545,2.6585,2.6619,2.6625,2.6656,2.665,2.6708,2.6667,2.6748,2.6705,2.6731,2.6743,2.6747,2.6752,2.6705,2.6783,2.6914,2.6929,2.6759,2.6757,2.6756,0,2.6345,2.6421,2.6487,2.6506,2.6547,2.6578,2.6597,2.6628,2.6657,2.6697,2.6716,2.6761,2.6786,2.6822,2.6829,2.6798,2.6912,2.687,2.692,2.692,2.6944,2.6942,2.7082,2.696,2.696,2.696,2.6959,0,2.6449,2.6508,2.6522,2.6563,2.6629,2.6632,2.6697,2.6713,2.6742,2.6787,2.6777,2.6819,2.6826,2.6871,2.6877,2.6945,2.6956,2.6963,2.6964,2.6964,2.6964,2.6981,2.6975,2.6963,2.6962,2.6962,2.6961,0,2.6543,2.6555,2.6627,2.666,2.667,2.6717,2.6746,2.6786,2.6798,2.6855,2.6869,2.6888,2.694,2.6951,2.7012,2.7017,2.7097,2.7092,2.7086,2.7085,2.7135,2.713,2.7291,2.7313,2.7176,2.7177,2.7178,0,2.6609,2.6654,2.6692,2.6722,2.6742,2.6789,2.6819,2.6825,2.6856,2.69,2.6935,2.6986,2.7027,2.7112,2.7132,2.7179,2.7175,2.7228,2.7182,2.7182,2.7177,2.7174,2.718,2.7237,2.7238,2.7239,2.724,0,2.6724,2.6728,2.6771,2.6817,2.6853,2.689,2.6924,2.6949,2.696,2.6996,2.7049,2.7081,2.7145,2.7197,2.7245,2.7265,2.7256,2.7255,2.7269,2.727,2.7265,2.7269,2.711,2.7251,2.725,2.7249,2.7249,2.7248,2.6807,2.6847,2.6881,2.693,2.6956,2.699,2.7029,2.7047,2.7091,2.7144,2.7145,2.7203,2.7239,2.7303,2.7326,2.7373,2.7356,2.7376,2.7382,2.7387,2.7392,2.7258,2.7382,2.7381,2.7381,2.7381,2.7381,0,2.6922,2.6944,2.6989,2.7038,2.7077,2.7065,2.7103,2.7137,2.7189,2.7222,2.7264,2.7326,2.7377,2.7401,2.7452,2.7485,2.7482,2.7498,2.7495,2.7501,2.7403,2.7386,2.75,2.75,2.75,2.7499,2.7499,2.7499,2.6987,2.7055,2.7063,2.7145,2.7166,2.7223,2.7247,2.7278,2.7305,2.7375,2.7417,2.7433,2.7464,2.7517,2.7563,2.7569,2.7588,2.7607,2.7611,2.7519,2.7507,2.7496,2.748,2.7611,2.7611,2.7705,2.7706,2.7706]},{"header":{"parameterUnit":"m.s-1","parameterCategory":1,"la1":30.2991,"la2":30.254,"lo1":-89.0895,"lo2":-89.0444,"dy":0.0017,"dx":0.0017,"nx":28,"ny":28,"refTime":"2024-12-19T09:00:00:Z","depth":0,"parameterNumber":3,"parameterNumberName":"V-component_of_WINDS"},"data":[0,0,0,0,0,0,0,0,0,0,0,0,0,0,0,0,0,0,0,0,0,0,0,0,0,0,0,0,0,0,0,0,0,0,0,0,0,0,0,0,0,0,0,0,0,0,0,0,0,0,0,0,0,0,0,0,0,0,-4.2265,-4.2266,0,-4.2379,-4.238,-4.2381,-4.2381,-4.238,-4.2378,-4.2377,-4.2491,-4.2495,-4.2499,0,0,0,0,0,0,0,0,0,0,0,0,0,-4.2046,-4.205,-4.2265,-4.2266,-4.2268,-4.2379,-4.238,-4.2382,-4.2382,-4.238,-4.2378,-4.2376,-4.2489,-4.2494,-4.25,0,0,0,0,0,0,0,0,0,0,0,0,0,-4.2148,-4.2051,-4.2264,-4.2281,-4.2284,-4.2378,-4.238,-4.2382,-4.2382,-4.238,-4.2378,-4.2375,-4.2488,-4.2494,-4.25,-4.2585,0,0,-4.2521,-4.2523,0,0,0,0,0,0,0,0,-4.2142,-4.2156,-4.2277,-4.228,-4.2283,-4.2364,-4.2345,-4.245,-4.2383,-4.2345,-4.2377,-4.2374,-4.245,-4.246,-4.2486,-4.2591,-4.2596,-4.2521,-4.2525,-4.2528,-4.253,0,0,0,0,0,0,0,-4.2135,-4.2151,-4.231,-4.2279,-4.2283,-4.2282,-4.2294,-4.2365,-4.2408,-4.2348,-4.2348,-4.2362,-4.2451,-4.2479,-4.2488,-4.2597,-4.2521,-4.2527,-4.2531,-4.2534,-4.278,-4.2783,0,0,0,0,0,0,-4.2125,-4.2145,-4.2306,-4.2313,-4.2206,-4.2288,-4.2302,-4.234,-4.2407,-4.2416,-4.2363,-4.2361,-4.2469,-4.2481,-4.2492,-4.2598,-4.2528,-4.2534,-4.2538,-4.2778,-4.2781,-4.2783,0,0,0,0,0,0,-4.212,-4.2139,-4.2301,-4.223,-4.225,-4.2294,-4.2337,-4.2343,-4.2372,-4.2419,-4.2427,-4.2384,-4.2468,-4.2483,-4.2563,-4.2602,-4.2537,-4.2543,-4.2774,-4.2778,-4.2782,-4.2809,0,0,0,0,0,0,-4.2114,-4.2138,-4.2171,-4.223,-4.2254,-4.2371,-4.234,-4.2347,-4.2383,-4.2382,-4.2441,-4.2449,-4.2467,-4.2553,-4.257,-4.261,-4.2548,-4.2771,-4.2776,-4.2781,-4.2805,-4.2813,-4.2821,0,0,0,0,0,-4.2106,-4.2172,-4.2172,-4.2192,-4.2296,-4.2373,-4.2386,-4.2408,-4.2386,-4.242,-4.2451,-4.2447,-4.2595,-4.2561,-4.258,-4.2623,-4.2769,-4.2775,-4.278,-4.2801,-4.2812,-4.282,0,0,0,0,0,0,-4.2115,-4.218,-4.2181,-4.2268,-4.2315,-4.2373,-4.2416,-4.2417,-4.247,-4.2466,-4.2489,-4.2503,-4.2583,-4.2611,-4.2572,-4.271,-4.2679,-4.2689,-4.2689,-4.2699,-4.2707,-4.2699,-4.2554,0,0,0,0,0,-4.2127,-4.2184,-4.2238,-4.231,-4.2334,-4.2371,-4.2405,-4.2418,-4.2467,-4.2486,-4.2523,-4.257,-4.2627,-4.2664,-4.272,-4.2809,-4.2822,-4.2847,-4.2855,-4.2861,-4.287,-4.2921,-4.2933,-4.2803,-4.2803,-4.2802,0,0,-4.2152,-4.2195,-4.223,-4.2313,-4.2351,-4.241,-4.2387,-4.245,-4.2495,-4.2495,-4.2574,-4.2603,-4.2657,-4.2742,-4.2782,-4.2768,-4.2909,-4.2869,-4.2874,-4.2879,-4.2928,-4.2941,-4.2952,-4.2807,-4.2806,-4.2805,0,0,-4.2229,-4.2267,-4.2332,-4.2371,-4.243,-4.2454,-4.247,-4.2528,-4.2547,-4.2627,-4.2629,-4.2682,-4.278,-4.2819,-4.2852,-4.2946,-4.2945,-4.2963,-4.3005,-4.3054,-4.3065,-4.3074,-4.3109,-4.3122,-4.2971,-4.2971,-4.2971,0,-4.2253,-4.2343,-4.2365,-4.243,-4.2467,-4.2472,-4.2539,-4.2575,-4.2648,-4.2673,-4.2657,-4.2782,-4.2818,-4.2914,-4.2937,-4.2963,-4.2982,-4.2957,-4.3061,-4.3071,-4.308,-4.3114,-4.3127,-4.2973,-4.2973,-4.2973,-4.2973,0,-4.2371,-4.2433,-4.2479,-4.2551,-4.2593,-4.2658,-4.269,-4.273,-4.274,-4.2766,-4.2848,-4.2892,-4.2958,-4.2981,-4.2989,-4.3079,-4.3069,-4.3057,-4.3027,-4.3094,-4.3127,-4.314,-4.2976,-4.2976,-4.2975,-4.2974,0,0,-4.2455,-4.2541,-4.2557,-4.2591,-4.2657,-4.2705,-4.2771,-4.2837,-4.2871,-4.2921,-4.2978,-4.3061,-4.3052,-4.3089,-4.3102,-4.3146,-4.322,-4.3128,-4.313,-4.3145,-4.3323,-4.3333,-4.3348,-4.3219,-4.3222,-4.3224,-4.3319,0,-4.254,-4.2658,-4.2681,-4.2784,-4.2843,-4.2849,-4.2907,-4.2953,-4.298,-4.3033,-4.3062,-4.3122,-4.3103,-4.3126,-4.317,-4.3202,-4.3256,-4.3195,-4.3272,-4.3275,-4.326,-4.3364,-4.3374,-4.3462,-4.3332,-4.3334,-4.3335,0,-4.2655,-4.2711,-4.282,-4.288,-4.2905,-4.2957,-4.302,-4.3071,-4.3124,-4.314,-4.3183,-4.3192,-4.3261,-4.3228,-4.3323,-4.3281,-4.3314,-4.3335,-4.3339,-4.3348,-4.331,-4.3377,-4.349,-4.3504,-4.3355,-4.3354,-4.3352,0,-4.2708,-4.281,-4.2889,-4.2917,-4.2989,-4.3025,-4.3056,-4.3108,-4.3146,-4.3201,-4.3227,-4.3288,-4.3322,-4.337,-4.3395,-4.3368,-4.349,-4.3458,-4.3506,-4.3506,-4.3532,-4.353,-4.3653,-4.3551,-4.3551,-4.355,-4.355,0,-4.2802,-4.2868,-4.2914,-4.2963,-4.3038,-4.3064,-4.3138,-4.3168,-4.3214,-4.3269,-4.3278,-4.3329,-4.3359,-4.3415,-4.3435,-4.3512,-4.3527,-4.3543,-4.3547,-4.3543,-4.3541,-4.3565,-4.356,-4.3554,-4.3553,-4.3552,-4.3552,0,-4.2874,-4.2907,-4.2994,-4.3055,-4.3072,-4.3125,-4.3178,-4.3225,-4.3252,-4.3322,-4.334,-4.3382,-4.3448,-4.3479,-4.356,-4.3574,-4.3662,-4.3662,-4.3645,-4.3647,-4.3694,-4.369,-4.3838,-4.3859,-4.3741,-4.3742,-4.3743,0,-4.2932,-4.2984,-4.3051,-4.309,-4.3123,-4.3183,-4.3224,-4.3251,-4.3293,-4.3359,-4.3399,-4.3466,-4.3521,-4.3626,-4.3664,-4.3727,-4.3729,-4.3777,-4.3738,-4.3733,-4.3732,-4.3729,-4.3735,-4.3784,-4.3785,-4.3786,-4.3787,0,-4.3032,-4.3046,-4.3105,-4.317,-4.3218,-4.327,-4.3321,-4.3351,-4.3387,-4.3433,-4.3502,-4.3545,-4.3629,-4.3696,-4.3762,-4.3793,-4.3797,-4.3798,-4.3813,-4.3809,-4.3798,-4.3807,-4.3665,-4.3795,-4.3794,-4.3794,-4.3793,-4.3793,-4.31,-4.3147,-4.3203,-4.3268,-4.331,-4.3358,-4.3407,-4.3441,-4.3499,-4.3571,-4.3584,-4.3657,-4.3711,-4.38,-4.3834,-4.3892,-4.3881,-4.3901,-4.3907,-4.3912,-4.3916,-4.3788,-4.3904,-4.3903,-4.3903,-4.3903,-4.3903,0,-4.3202,-4.3239,-4.3299,-4.3371,-4.3423,-4.3422,-4.3479,-4.3522,-4.3587,-4.3637,-4.3692,-4.3772,-4.3838,-4.3881,-4.3948,-4.3986,-4.3989,-4.4002,-4.4,-4.4008,-4.3921,-4.3903,-4.3999,-4.3999,-4.3999,-4.3999,-4.3999,-4.3999,-4.3261,-4.3342,-4.3364,-4.3466,-4.3502,-4.3575,-4.3608,-4.3653,-4.3693,-4.3783,-4.3838,-4.3866,-4.3915,-4.3985,-4.4045,-4.4056,-4.4081,-4.4095,-4.4106,-4.4024,-4.4014,-4.4004,-4.3987,-4.41,-4.41,-4.4188,-4.4189,-4.419]}]]